Total_Precipitation_Accumulation
0.00 0.00 0.00 0.00 0.00 0.00 0.00 0.00 0.00 0.00 0.00 0.00 0.00 0.00 0.00 0.00 0.00 0.00 0.00 0.00 0.00 0.00 0.00 0.00 0.01 0.02 0.09 0.13 0.13 0.20 0.39 0.50 0.39 0.22 0.13 0.06 0.03 0.04 0.07 0.13 0.18 0.27 0.39 0.46
0.00 0.00 0.00 0.00 0.00 0.00 0.00 0.00 0.00 0.00 0.00 0.00 0.00 0.00 0.00 0.00 0.00 0.00 0.00 0.00 0.00 0.00 0.00 0.00 0.02 0.02 0.03 0.06 0.11 0.19 0.34 0.45 0.39 0.27 0.14 0.05 0.02 0.01 0.04 0.08 0.10 0.16 0.21 0.20
0.00 0.00 0.00 0.00 0.00 0.00 0.00 0.00 0.00 0.00 0.00 0.00 0.01 0.01 0.00 0.00 0.00 0.00 0.00 0.00 0.00 0.00 0.00 0.01 0.02 0.04 0.05 0.05 0.08 0.19 0.33 0.41 0.39 0.32 0.19 0.11 0.04 0.03 0.04 0.04 0.05 0.07 0.05 0.04
0.00 0.00 0.00 0.00 0.00 0.00 0.01 0.01 0.01 0.01 0.01 0.01 0.01 0.01 0.00 0.00 0.00 0.00 0.00 0.00 0.00 0.00 0.01 0.01 0.01 0.03 0.04 0.05 0.08 0.16 0.26 0.35 0.39 0.33 0.26 0.23 0.12 0.07 0.04 0.04 0.06 0.09 0.05 0.02
0.00 0.00 0.00 0.00 0.01 0.02 0.02 0.01 0.01 0.02 0.02 0.02 0.01 0.01 0.01 0.00 0.00 0.00 0.01 0.01 0.01 0.01 0.02 0.02 0.02 0.02 0.03 0.04 0.07 0.12 0.18 0.29 0.34 0.29 0.24 0.21 0.16 0.10 0.07 0.09 0.08 0.07 0.05 0.02
0.00 0.01 0.02 0.01 0.02 0.04 0.03 0.04 0.03 0.02 0.02 0.01 0.02 0.04 0.02 0.01 0.00 0.01 0.01 0.01 0.01 0.01 0.01 0.02 0.02 0.03 0.04 0.05 0.09 0.16 0.18 0.24 0.32 0.33 0.31 0.27 0.21 0.11 0.08 0.11 0.10 0.06 0.03 0.02
0.02 0.05 0.04 0.02 0.03 0.03 0.07 0.09 0.03 0.02 0.02 0.03 0.06 0.09 0.05 0.02 0.01 0.01 0.01 0.01 0.02 0.02 0.02 0.03 0.04 0.05 0.08 0.10 0.15 0.17 0.18 0.20 0.26 0.34 0.34 0.32 0.27 0.17 0.10 0.09 0.09 0.09 0.06 0.05
0.03 0.06 0.07 0.02 0.01 0.04 0.05 0.04 0.04 0.05 0.05 0.06 0.05 0.03 0.02 0.01 0.01 0.01 0.01 0.01 0.02 0.03 0.03 0.04 0.06 0.11 0.16 0.20 0.22 0.21 0.22 0.24 0.28 0.31 0.21 0.19 0.25 0.23 0.17 0.12 0.12 0.11 0.08 0.05
0.04 0.05 0.02 0.01 0.02 0.03 0.04 0.07 0.07 0.07 0.05 0.03 0.03 0.02 0.02 0.02 0.02 0.02 0.02 0.03 0.04 0.05 0.07 0.09 0.15 0.24 0.32 0.33 0.31 0.28 0.28 0.29 0.30 0.30 0.27 0.28 0.25 0.22 0.18 0.13 0.11 0.08 0.05 0.03
0.07 0.04 0.02 0.02 0.03 0.03 0.03 0.04 0.03 0.02 0.02 0.02 0.03 0.04 0.04 0.04 0.03 0.03 0.02 0.03 0.04 0.08 0.14 0.21 0.30 0.40 0.44 0.42 0.38 0.32 0.29 0.29 0.29 0.30 0.29 0.27 0.25 0.21 0.17 0.12 0.10 0.08 0.06 0.03
0.07 0.05 0.03 0.04 0.04 0.02 0.01 0.01 0.01 0.01 0.01 0.02 0.04 0.06 0.06 0.06 0.05 0.04 0.03 0.04 0.07 0.11 0.18 0.26 0.38 0.48 0.47 0.44 0.42 0.38 0.33 0.32 0.29 0.27 0.26 0.23 0.20 0.20 0.21 0.20 0.13 0.12 0.09 0.05
0.07 0.06 0.07 0.07 0.03 0.02 0.02 0.02 0.03 0.03 0.03 0.03 0.05 0.06 0.06 0.06 0.05 0.05 0.04 0.05 0.09 0.14 0.19 0.22 0.32 0.46 0.49 0.50 0.48 0.44 0.40 0.35 0.29 0.24 0.23 0.19 0.16 0.09 0.06 0.08 0.03 0.03 0.04 0.03
0.04 0.03 0.04 0.03 0.02 0.03 0.03 0.03 0.04 0.04 0.04 0.04 0.05 0.05 0.04 0.04 0.04 0.04 0.04 0.05 0.09 0.14 0.18 0.20 0.25 0.37 0.46 0.52 0.54 0.54 0.47 0.42 0.34 0.25 0.20 0.14 0.10 0.08 0.05 0.02 0.01 0.01 0.01 0.00
0.02 0.02 0.02 0.02 0.02 0.02 0.02 0.02 0.03 0.04 0.05 0.05 0.05 0.05 0.05 0.04 0.04 0.05 0.05 0.05 0.06 0.09 0.13 0.16 0.22 0.31 0.39 0.49 0.55 0.55 0.52 0.45 0.39 0.31 0.21 0.13 0.07 0.06 0.08 0.06 0.02 0.01 0.00 0.00
0.01 0.02 0.03 0.02 0.01 0.01 0.02 0.02 0.03 0.05 0.06 0.05 0.05 0.05 0.05 0.05 0.05 0.05 0.04 0.04 0.05 0.07 0.10 0.14 0.21 0.30 0.41 0.53 0.58 0.52 0.47 0.43 0.36 0.32 0.25 0.16 0.09 0.05 0.06 0.07 0.05 0.02 0.00 0.00
0.00 0.00 0.01 0.01 0.02 0.02 0.02 0.02 0.02 0.03 0.04 0.05 0.05 0.04 0.04 0.04 0.04 0.04 0.04 0.05 0.07 0.09 0.11 0.13 0.17 0.25 0.40 0.56 0.61 0.56 0.46 0.37 0.34 0.31 0.27 0.20 0.12 0.06 0.04 0.05 0.05 0.03 0.01 0.00
0.01 0.00 0.00 0.01 0.01 0.02 0.02 0.02 0.03 0.03 0.04 0.06 0.05 0.04 0.04 0.04 0.05 0.05 0.06 0.06 0.07 0.08 0.10 0.14 0.17 0.22 0.35 0.52 0.61 0.57 0.47 0.36 0.30 0.27 0.25 0.20 0.13 0.06 0.03 0.02 0.02 0.02 0.01 0.00
0.00 0.00 0.00 0.00 0.01 0.02 0.02 0.03 0.03 0.03 0.04 0.06 0.08 0.09 0.09 0.10 0.10 0.10 0.09 0.08 0.08 0.08 0.09 0.13 0.17 0.23 0.33 0.44 0.55 0.58 0.50 0.40 0.29 0.22 0.20 0.17 0.13 0.08 0.03 0.02 0.01 0.01 0.01 0.00
0.00 0.00 0.00 0.00 0.00 0.01 0.02 0.03 0.03 0.04 0.04 0.07 0.10 0.14 0.16 0.17 0.17 0.15 0.14 0.14 0.13 0.10 0.10 0.14 0.17 0.22 0.31 0.40 0.49 0.57 0.54 0.44 0.31 0.22 0.18 0.15 0.11 0.07 0.04 0.02 0.01 0.01 0.00 0.00
0.00 0.00 0.00 0.00 0.00 0.00 0.01 0.03 0.04 0.05 0.07 0.11 0.15 0.18 0.21 0.26 0.28 0.27 0.24 0.20 0.16 0.14 0.14 0.18 0.20 0.22 0.28 0.38 0.47 0.49 0.52 0.46 0.31 0.21 0.16 0.12 0.08 0.05 0.03 0.02 0.01 0.01 0.00 0.00
0.00 0.00 0.00 0.00 0.00 0.00 0.01 0.03 0.06 0.10 0.14 0.18 0.23 0.26 0.28 0.34 0.39 0.38 0.35 0.26 0.20 0.21 0.21 0.19 0.19 0.22 0.28 0.37 0.45 0.46 0.48 0.46 0.32 0.19 0.12 0.08 0.06 0.04 0.03 0.02 0.02 0.01 0.00 0.00
0.00 0.00 0.00 0.01 0.01 0.02 0.03 0.05 0.09 0.18 0.26 0.30 0.30 0.31 0.33 0.35 0.42 0.45 0.39 0.35 0.31 0.31 0.27 0.22 0.19 0.20 0.26 0.34 0.39 0.42 0.43 0.41 0.30 0.16 0.07 0.04 0.03 0.03 0.02 0.02 0.01 0.01 0.00 0.00
0.00 0.01 0.02 0.02 0.04 0.05 0.05 0.07 0.13 0.26 0.38 0.45 0.45 0.43 0.41 0.38 0.38 0.48 0.51 0.42 0.39 0.36 0.30 0.25 0.22 0.19 0.19 0.26 0.33 0.35 0.35 0.32 0.26 0.13 0.04 0.02 0.02 0.01 0.01 0.01 0.01 0.00 0.00 0.00
0.01 0.02 0.02 0.03 0.05 0.07 0.11 0.15 0.22 0.32 0.40 0.44 0.42 0.41 0.41 0.36 0.29 0.28 0.39 0.48 0.47 0.42 0.35 0.28 0.23 0.17 0.14 0.16 0.25 0.30 0.29 0.25 0.20 0.11 0.03 0.01 0.01 0.01 0.00 0.00 0.00 0.00 0.00 0.00
0.02 0.02 0.03 0.04 0.09 0.17 0.26 0.34 0.43 0.48 0.51 0.50 0.42 0.35 0.33 0.31 0.28 0.22 0.24 0.34 0.45 0.45 0.41 0.35 0.27 0.20 0.12 0.11 0.16 0.22 0.23 0.19 0.13 0.07 0.02 0.01 0.01 0.00 0.00 0.00 0.00 0.00 0.00 0.00
0.02 0.02 0.03 0.05 0.11 0.23 0.39 0.56 0.71 0.72 0.73 0.71 0.55 0.38 0.30 0.26 0.23 0.20 0.18 0.19 0.25 0.32 0.37 0.39 0.31 0.21 0.14 0.10 0.11 0.13 0.15 0.15 0.09 0.04 0.01 0.01 0.00 0.00 0.00 0.00 0.00 0.00 0.00 0.00
0.01 0.02 0.03 0.06 0.15 0.28 0.44 0.60 0.76 0.81 0.80 0.81 0.64 0.41 0.28 0.22 0.18 0.16 0.15 0.17 0.19 0.24 0.30 0.33 0.30 0.21 0.14 0.11 0.08 0.08 0.10 0.09 0.05 0.03 0.01 0.01 0.00 0.00 0.00 0.00 0.00 0.00 0.00 0.00